www.pogodaiklimat.ru

Погода и климат >> Архив погоды >> Боливия >> San Borja


ПОГОДА в San Borja

  • Прогноз погоды в San Borja
  • Монитор погоды в San Borja
  • Климат города

АРХИВ ПОГОДЫ в San Borja

Время (UTC), дата Ветер
(напр.,м/с)
 
Видим.   Явления Облачность Т
(С)
Тd
(С)
f
(%)
Тe
(С)
Тes
(С)
Комфортность P
(гПа)
Po
(гПа)
Тmin
(С)
Tmax
(С)
R
(мм)
R24
(мм)
S
(см)
15 9.07 ЮВ 4 20 км 10/4 600 м
[Sc Ac lent]
+15.7 +11.6 77 +15 +16 1025.4 1002.0
18 9.07 ЮВ 4 50 км 10/9 500 м
[Sc diur, vesp Cs]
+17.9 +12.9 73 +18 +18 1023.8 1000.9
21 9.07 Ю 3 50 км 10/5 500 м
[Sc Ac inh]
+16.2 +13.3 83 +16 +16 1022.6 999.9 +21.5
12 10.07 В 3 50 км 9/0 2000 м
[Ac und]
+14.2 +9.4 73 +13 +14 1025.3 1002.4 +13.3
15 10.07 В 6 50 км 9/0 2000 м
[Ac und]
+16.4 +9.1 62 +15 +17 1026.5 1003.5
18 10.07 В 3 20 км ясно +19.5 +11.0 58 +21 +32 комфорт 1022.3 998.9
21 10.07 Ю 2 20 км 1/0 2000 м
[Ac trans]
+21.0 +12.1 57 +24 +25 комфорт 1019.7 996.4 +21.0
12 11.07 Ю 2 20 км ясно +12.4 +11.7 95 +12 +13 1019.9 996.4 +11.0
15 11.07 В 3 20 км ясно +21.5 +9.0 45 +23 +33 комфорт 1020.3 997.1
18 11.07 В 2 50 км 4/0
[Ci fib]
+23.2 +9.0 40 +25 +35 комфорт 1016.6 994.0
21 11.07 штиль 0 50 км 4/0
[Ci fib]
+23.9 +10.9 44 +25 +27 комфорт 1014.9 992.1 +25.2
12 12.07 штиль 0 50 км 3/0
[Ci fib]
+13.5 +12.6 94 +13 +15 1018.6 995.6 +12.0
15 12.07 З 2 50 км 5/0
[Ci fib]
+23.5 +14.1 56 +26 +37 жарко 1019.0 996.2
18 12.07 СЗ 2 20 км 6/0
[Ci fib]
+28.2 +15.7 47 +31 +42 душно 1015.4 992.6
21 12.07 С 3 20 км 5/0
[Ci fib]
+28.1 +16.5 49 +32 +33 душно 1014.2 991.2 +30.1
12 13.07 штиль 0 7000 м дым 9/0
[Ci fib]
+17.2 +16.6 96 +17 +19 1006.8 993.8 +14.3
15 13.07 штиль 0 20 км 6/0
[Ci fib]
+26.1 +18.9 65 +31 +46 очень
душно
1016.5 993.8
18 13.07 СЗ 4 20 км 8/0
[Ci fib]
+30.0 +19.3 53 +36 +42 очень
душно
1014.4 991.9
21 13.07 С 4 20 км 4/0
[Ci fib]
+30.0 +17.6 47 +34 +35 очень
душно
1012.1 989.3 +30.7
12 14.07 штиль 0 5000 м дымка {туман} 4/0
[Ci fib]
+17.5 +17.0 97 +17 +19 1014.2 991.4 +16.4
15 14.07 штиль 0 20 км 3/0
[Ci fib]
+27.9 +20.6 65 +35 +50 очень
душно
1014.1 991.6
18 14.07 СЗ 4 20 км 3/0
[Ci fib]
+31.9 +19.0 46 +37 +44 очень
душно
1011.5 989.2
21 14.07 СЗ 4 20 км 5/0
[Ci fib]
+31.4 +17.9 45 +36 +37 очень
душно
1009.7 987.1 +32.8
12 15.07 штиль 0 20 км ясно +19.2 +18.4 95 +21 +23 комфорт 1012.3 989.6 +17.0
15 15.07 СЗ 4 20 км ясно +27.8 +20.8 66 +35 +43 очень
душно
1012.3 989.9
18 15.07 С 5 20 км ясно +32.6 +19.2 45 +38 +44 очень
душно
1010.2 988.0
21 15.07 СЗ 4 20 км ясно +32.1 +20.0 49 +38 +39 очень
душно
1009.8 987.3 +33.0

 

Местоположение метеостанции San Borja (Боливия): широта -14.86 долгота -66.86 высота над уровнем моря 194 м.

В архиве по умолчанию представлена погода в San Borja за последнюю неделю. Архивные данные за месяц целиком и за предыдущие месяцы, начиная с января 2011 года, Вы можете получить, выбрав интересующий диапазон дат из раскрывающегося списка и нажав кнопку "Ввод!".


*Определитесь, кто Вы:
робот инопланетянин человек

Внимание! Время в таблицах - всемирное. Для получения местного времени необходимо прибавить поправку, которая в San Borja равна -4 ч.

Смотрите также архив погоды в соседних городах и на ближайших метеорологических станциях:

Погода в Santa Rosa (Боливия) (77 км)
Погода в Reyes (Боливия) (83 км)
Погода в Rurrenabaque (Боливия) (87 км)
Погода в San Ignacio De Moxo (Боливия) (136 км)
Погода в Santa Ana (Боливия) (197 км)
Погода в Baures (Боливия) (197 км)
Погода в Trinidad (Боливия) (210 км)
Погода в Ovejuyo (Боливия) (224 км)
Погода в La Paz (Боливия) (232 км)
Погода в San Ramon (Боливия) (291 км)

Пояснения к столбцам:

Ветер - указаны скорость ветра в м/с - средняя за 10 мин, порывы в срок и между сроками (в фигурных скобках) и направление, откуда дует ветер: С - северный, СВ - северо-восточный, В - восточный, ЮВ - юго-восточный, Ю - южный, ЮЗ - юго-западный, З - западный, СЗ - северо-западный.
Видимость - горизонтальная дальность видимости в метрах или километрах. При видимости от 1 до 10 км при отсутствии осадков обычно наблюдается дымка, при ухудшении видимости до 1 км и менее - туман. В сухую погоду видимость может ухудшаться дымом, пылью или мглою.
Явления - указаны атмосферные явления, наблюдавшиеся в срок или в последний час перед сроком; фигурными скобками обозначены явления, наблюдавшиеся между сроками (за 1-3 часа до срока); квадратными скобками обозначены град или гололедные отложения с указанием их диаметра в мм.
Облачность - указаны через наклонную черту общая и нижняя облачность в баллах и высота нижней границы облаков в метрах; квадратными скобками обозначены формы облаков: Ci - перистые, Cs - перисто-слоистые, Cc - перисто-кучевые, Ac - высококучевые, As - высокослоистые, Sc - слоисто-кучевые, Ns - слоисто-дождевые, Cu - кучевые, Cb - кучево-дождевые. Подробнее классификацию облаков см. в Атласе облаков (PDF).
T - Температура воздуха - температура, измеренная на высоте 2 м над землей.
Td - Температура точки росы - температура, при понижении до которой содержащийся в воздухе водяной пар достигнет насыщения.
f - Относительная влажность воздуха - влажноcть воздуха, измеренная на высоте 2 м над землей.
Te - Эффективная температура - температура, которую ощущает одетый по сезону человек в тени. Характеристика душности погоды. При расчете учитывается влияние влажности воздуха и скорости ветра на теплоощущения человека.
Tes - Эффективная температура на солнце - температура, которую ощущает человек, с поправкой на солнечный нагрев. Характеристика знойности погоды. Зависит от высоты солнца над горизонтом, облачности и скорости ветра. Ночью, в пасмурную погоду, а также при ветре 12 м/с и более поправка равна нулю.
P - Атмосферное давление - приведенное к уровню моря атмосферное давление.
Po - Атмосферное давление - измеренное на уровне метеостанции атмосферное давление.
Tmin - Минимальная температура - минимум температуры воздуха на высоте 2 м над землей.
Tmax - Максимальная температура - максимум температуры воздуха на высоте 2 м над землей.
R - Количество осадков - Количество выпавших осадков за период времени, мм. При наведении курсора мыши на число - период времени, за который выпало указанное количество осадков.
R24 - Количество осадков - Количество выпавших осадков за 24 часа, мм.
S - Снежный покров - Высота снежного покрова, см. При наведении курсора мыши на число - состояние снежного покрова и степень покрытия местности в баллах.